Location: ???????????
(54.5822°N, 39.1075°E)
Time: 03:51:19
(UTC+00:00)

ARIANE 6 FM1 Upper Stage - Pass Details

Date: 19 May 2025
Orbit: 530 x 610 km, 62.0° (Epoch: 19 June)

Event Time Altitude Azimuth Distance (km) Brightness Sun altitude
Rises 23:42:38 0° 304° (NW) 2,707 6.2 -9.4°
Reaches altitude 10° 23:44:53 10° 310° (NW) 1,823 5.4 -9.3°
Maximum altitude 23:48:52 48° 25° (NNE) 736 3.8 -8.9°
Drops below altitude 10° 23:52:56 10° 101° (E) 1,861 5.7 -8.6°
Sets 23:55:15 0° 107° (ESE) 2,771 6.5 -8.4°
